Location: Dürabuch
(48.2640°N, 11.2185°E)
Time: 03:09:18
(UTC+00:00)

Cosmos 1455 Rocket - Pass Details

Date: 23 May 2024
Orbit: 602 x 625 km, 82.5° (Epoch: 19 June)

Event Time Altitude Azimuth Distance (km) Brightness Sun altitude
Rises 02:37:48 0° 355° (N) 2,882 7.1 -7.2°
Reaches altitude 10° 02:40:06 10° 1° (N) 1,976 6.3 -6.9°
Maximum altitude 02:44:19 46° 76° (ENE) 826 4.3 -6.4°
Drops below altitude 10° 02:48:32 10° 150° (SSE) 1,974 5.5 -5.8°
Sets 02:50:49 0° 156° (SSE) 2,879 6.3 -5.5°
